Find Starlink 36425

NORAD ID: 67467 Int'l Des: 2026-008 Owner: SPXS Country: US Constellation: starlink operational
LEOCIRCULAR

Live-Position

3D-Globus wird geladen...

Über Starlink 36425

Beschreibung wird geladen...

Nächste Überflüge

Passes for default location (London). Set your location on the main map for personalized predictions.

Höhenverlauf

Loading altitude history...

Zweizeiliger Elementsatz

1 67467U 26008Y 26106.96973340 .00013903 00000-0 51366-3 0 9992
2 67467 43.0079 349.3062 0000600 287.9233 72.1553 15.27589690 15429
Epoch: 16. Apr. 2026 • Age: 4 hours

Aktueller Status

Höhe 482.8 km
Geschwindigkeit 7.63 km/s
Subsatellitenpunkt 0.75°N, 85.55°W
Startdatum 14. Jan. 2026
Alter 0.2 years
Typ internet

Technische Details

Klassifizierung Payload
Masse 575.00 kg
Trockenmasse 530.00 kg
Gesamtmasse 575.00 kg
Länge 0.30 m
Durchmesser 4.10 m
Spannweite 29.00 m
Form Box + pan
Hersteller SPXS
Bus-Typ Starlink V2MO
Phasenstatus In Orbit
Besitzer/Staat SPXS/US

Most Searched